Location: Chagrin Falls Park
(41.4139°N, 81.3865°W)
Time: 14:31:49
(UTC+00:00)

STARLINK-2727 - Pass Details

Date: 12 December 2021
Orbit: 546 x 548 km, 53.1° (Epoch: 27 January)

Event Time Altitude Azimuth Distance (km) Brightness Sun altitude
Rises 23:06:01 0° 311° (NW) 2,715 7.6 -12.7°
Reaches altitude 10° 23:08:29 10° 323° (NW) 1,820 6.5 -13.1°
Maximum altitude 23:12:06 29° 24° (NNE) 1,027 4.6 -13.7°
Enters shadow 23:13:33 23° 59° (ENE) 1,186 4.7 -14.0°
